User: anonymous   Login
Location: Bijele Vode
(45.2833°N, 16.2000°E)
Time: 15:54:58
(UTC+00:00)
Language:

NANOSAT C BR1 - Orbit

View from above orbital plane
View from above orbital plane
View from above satellite
View from above satellite

Ground track
Ground track

The orbit data is extracted from the following two-line orbital elements,

1 40024U 14033Q   21332.09733239  .00000918  00000-0  99382-4 0  9991
2 40024  97.9653 268.5196 0012124 358.2171   1.9001 14.90705949404495
Epoch (UTC): 28 November 2021 02:20:09
Eccentricity: 0.0012124
inclination: 97.9653°
perigee height: 587 km
apogee height: 604 km
right ascension of ascending node: 268.5196°
argument of perigee: 358.2171°
revolutions per day: 14.90705949
mean anomaly at epoch: 1.9001°
orbit number at epoch: 40449

The dashed part of the orbit path shows where the satellite is in the earth's shadow,  

DLR